Wind_Speed
33 33 32 31 31 30 29 30 29 28 29 29 30 29 28 26 28 28 28 29 31 32 33 35 35 34 36 38 41 41 40 41 40 40 41 42 43 45 46 47 47 48 49
34 33 33 33 34 34 34 33 34 33 33 33 32 32 33 32 32 33 34 36 38 38 38 40 40 42 44 45 46 45 45 45 46 46 48 48 48 49 50 51 51 52 52
37 37 36 34 34 35 36 35 36 37 36 36 37 36 37 39 40 41 41 43 42 43 43 43 44 46 48 50 50 49 49 49 49 51 51 52 52 52 52 53 52 54 56
41 40 39 38 37 38 39 39 39 39 40 40 41 42 43 45 46 47 47 48 49 48 48 48 48 49 50 51 51 51 53 53 54 54 55 54 55 56 57 56 57 60 60
44 43 43 42 42 43 43 44 44 44 44 45 45 47 48 50 50 50 50 51 51 50 51 52 51 52 53 55 56 58 57 56 56 55 55 55 57 59 59 60 62 61 61
48 47 46 45 45 46 46 46 46 46 47 47 47 49 50 51 52 54 54 52 52 53 53 53 56 59 60 60 59 58 58 57 57 58 58 59 60 61 62 62 61 62 64
51 49 48 46 46 47 48 48 48 49 49 48 50 51 52 54 55 55 56 56 56 55 57 58 60 61 60 59 59 59 58 57 55 56 58 60 62 62 62 64 64 66 69
54 53 51 50 50 51 52 52 53 53 54 54 54 55 55 57 58 60 59 59 59 59 59 60 60 60 59 59 59 58 56 57 60 63 65 66 66 66 66 69 69 71 72
59 58 57 57 57 57 57 57 58 59 60 61 61 61 62 63 63 63 62 61 62 60 61 61 60 59 60 60 59 61 63 65 67 69 71 70 68 69 69 71 73 77 77
64 64 63 62 61 61 62 62 63 64 65 66 65 66 68 66 64 63 65 66 65 64 62 60 61 61 61 62 64 65 68 67 68 69 69 71 72 74 75 77 77 80 79
70 69 69 70 69 67 68 67 67 66 67 68 69 68 67 67 67 68 67 65 64 64 65 63 63 65 65 66 67 67 68 67 69 71 72 73 74 74 75 79 80 78 75
74 72 72 71 71 70 70 70 70 70 69 69 69 67 66 65 64 63 63 64 66 67 68 68 68 68 70 69 68 69 68 70 70 72 72 72 73 74 75 71 70 69 69
67 68 69 69 68 68 68 68 67 66 66 65 64 61 63 63 64 66 66 66 67 68 69 69 69 69 67 69 70 69 69 71 71 71 70 72 74 68 63 61 60 56 59
71 69 69 68 68 67 65 64 63 63 62 62 62 62 64 65 66 67 67 68 68 69 71 72 70 69 71 70 69 71 71 71 71 69 71 70 64 61 60 59 56 53 52
69 69 68 67 68 67 66 66 66 66 67 67 67 67 67 69 70 71 72 72 72 69 69 70 69 70 69 69 70 70 71 70 70 70 69 66 61 57 56 56 55 48 47
66 67 67 68 68 68 69 70 70 71 71 71 71 71 73 74 75 73 72 71 69 69 69 70 71 69 70 70 70 71 70 67 68 67 65 61 57 56 56 54 52 50 49
69 68 69 68 69 71 72 73 73 73 73 72 72 73 73 74 74 73 72 71 71 70 70 70 70 69 68 69 69 69 68 69 68 66 63 61 56 57 57 56 52 50 50
71 70 68 69 71 72 74 74 74 74 74 75 75 74 74 73 72 73 73 73 74 73 72 71 71 70 68 69 69 68 67 68 68 67 65 59 57 57 58 57 57 55 54
76 75 74 74 73 74 76 77 77 76 75 75 76 76 75 74 75 75 77 75 77 75 75 75 74 70 69 69 69 68 68 71 69 69 66 61 60 62 64 62 63 58 56
76 77 76 77 78 78 78 77 77 77 75 75 76 77 79 79 78 79 79 80 78 79 78 73 68 68 67 68 70 73 72 73 71 72 67 67 65 65 68 67 65 62 62
78 79 81 80 84 83 82 82 81 79 81 79 81 81 81 82 82 81 83 83 81 81 76 71 74 72 74 74 76 76 73 74 74 71 69 70 69 71 70 67 68 66 65
81 81 82 83 84 86 83 84 82 82 83 84 84 84 85 86 87 84 83 83 82 80 78 81 78 76 75 75 75 76 76 75 75 73 72 73 72 73 72 70 69 69 69
85 84 87 88 86 86 87 86 87 87 88 89 88 90 91 90 88 86 85 84 84 84 84 82 81 79 77 76 74 75 76 73 73 75 75 74 76 76 75 73 70 72 73
86 89 89 90 89 89 89 89 90 90 90 91 93 94 93 92 91 89 90 89 89 89 89 85 84 84 83 82 79 74 73 74 71 77 79 74 76 77 73 73 72 71 72
89 89 87 86 86 87 87 90 88 86 90 93 93 95 96 97 95 93 94 91 90 90 88 88 86 84 84 80 79 78 78 78 80 78 79 80 76 77 77 75 74 76 74
84 82 82 85 85 88 88 87 90 90 92 94 94 95 96 97 99 98 96 96 94 94 94 94 92 92 88 85 83 80 78 77 81 85 77 77 80 76 75 78 77 80 80
Wind_Direction
232 231 229 229 232 236 238 240 241 247 253 258 260 257 259 267 273 275 276 279 279 282 285 287 288 287 289 292 293 292 289 286 287 288 289 289 290 290 291 290 290 292 293
234 236 239 238 237 237 241 245 248 252 256 258 260 261 265 267 274 276 279 280 282 283 285 288 289 289 291 295 294 292 291 288 287 287 287 288 291 292 292 290 291 293 293
237 236 237 241 243 245 245 246 248 252 256 259 262 264 268 270 274 278 280 280 281 282 284 284 286 288 290 292 292 292 289 287 285 286 285 284 285 289 290 289 288 290 291
240 242 241 242 244 247 250 253 254 255 258 262 264 267 270 274 277 279 281 282 285 286 286 286 287 288 288 289 289 289 288 286 287 287 288 287 287 289 291 290 289 290 292
238 242 245 246 247 249 249 253 256 258 261 264 268 270 272 275 279 281 282 282 282 283 284 286 286 286 286 287 286 286 286 286 286 287 287 288 289 289 289 289 289 290 293
241 243 246 248 251 252 252 254 258 260 263 266 270 273 276 278 279 279 279 280 281 283 283 284 285 287 288 287 286 286 287 285 287 289 288 288 292 291 289 291 291 292 294
242 244 247 251 255 257 260 261 262 264 266 268 270 271 274 278 279 281 282 282 282 282 284 286 287 288 287 286 287 288 287 287 289 289 291 292 293 292 291 291 291 293 290
245 248 249 253 256 257 259 262 263 265 268 269 272 273 275 278 279 280 280 281 283 283 284 287 288 286 286 287 287 287 285 287 288 290 291 292 293 292 290 290 290 292 291
245 247 250 253 257 259 260 263 266 267 270 272 273 274 276 279 279 279 278 282 285 285 286 288 286 285 286 287 287 288 287 288 288 289 290 292 292 292 291 290 290 292 291
247 249 252 254 256 258 261 263 265 267 269 271 273 274 276 278 279 279 280 283 284 284 284 284 284 284 285 285 286 287 289 290 290 291 294 294 296 295 294 293 292 291 290
252 252 254 258 260 261 262 265 266 267 270 271 273 275 277 278 279 280 282 283 282 282 283 284 282 283 284 286 287 287 288 290 292 295 298 297 297 295 294 294 292 288 288
254 255 257 258 260 263 264 266 267 268 270 271 273 275 276 278 280 280 281 281 282 283 283 283 283 283 285 286 285 289 291 294 296 297 299 299 297 297 294 294 292 288 288
253 256 259 260 262 264 265 266 266 267 267 269 272 274 276 277 278 280 281 282 283 284 284 284 284 285 285 287 291 293 297 298 299 298 298 299 301 300 298 298 296 294 292
252 254 256 258 259 261 263 265 267 269 271 273 275 277 277 278 278 280 283 284 285 284 284 284 284 285 287 291 293 295 298 297 300 300 301 304 301 302 301 300 299 300 295
255 258 260 262 264 266 267 268 270 271 273 275 276 278 279 279 281 283 284 285 285 285 286 285 286 288 290 291 292 294 297 298 300 301 305 303 302 306 303 303 300 299 297
257 259 262 263 264 266 268 269 271 273 275 276 277 278 279 281 282 283 285 286 286 286 287 287 289 290 292 291 292 293 295 297 299 303 307 306 306 305 303 304 302 302 301
256 261 264 266 266 266 268 270 271 272 274 276 278 279 281 281 282 284 286 287 287 286 286 288 289 290 290 289 290 292 294 297 301 303 303 301 303 309 306 304 303 301 299
259 263 266 269 270 269 269 270 271 272 274 277 278 279 279 282 284 285 285 285 285 285 285 286 287 288 287 288 289 290 293 297 298 304 299 300 299 308 312 304 304 302 300
264 264 265 268 270 271 271 272 272 273 275 275 278 279 280 282 283 284 283 283 282 283 283 283 285 285 284 285 286 289 292 296 296 299 300 294 296 300 308 306 304 301 302
267 267 269 271 272 272 273 274 275 275 274 276 278 279 280 281 281 281 280 280 280 280 280 282 283 282 283 284 285 289 292 293 293 296 294 294 294 298 303 302 302 300 303
267 269 272 274 273 275 274 274 275 274 276 277 277 279 278 279 279 278 280 280 279 279 280 279 280 278 281 283 284 287 287 291 290 291 291 295 295 296 298 297 299 299 302
266 270 272 274 273 274 276 275 275 274 275 275 276 277 277 277 277 279 278 277 279 278 277 278 280 281 281 282 283 284 285 286 286 288 287 292 293 294 295 295 295 298 300
267 269 272 274 272 272 273 274 274 274 274 274 274 274 276 276 276 276 276 276 277 278 279 279 279 279 282 280 281 281 282 283 282 285 287 289 292 292 293 293 293 296 298
266 268 270 270 270 270 270 271 271 273 274 275 276 277 276 275 275 275 276 277 278 279 279 278 279 280 280 280 280 278 281 283 282 284 284 285 288 289 290 290 292 294 294
263 264 265 266 266 269 270 273 272 272 274 276 277 277 276 276 276 276 276 275 275 275 276 277 278 277 278 279 276 277 278 278 279 282 283 284 285 287 288 287 289 292 292
264 266 265 267 268 269 270 269 271 273 274 274 274 272 272 273 274 274 272 272 271 272 272 272 274 276 278 276 275 274 276 276 278 281 280 282 286 286 287 287 289 290 291
Height
10915 10917 10920 10921 10922 10923 10925 10926 10927 10928 10930 10930 10931 10932 10932 10932 10933 10932 10933 10932 10932 10932 10931 10930 10929 10928 10927 10926 10924 10922 10921 10919 10917 10915 10912 10910 10907 10905 10902 10899 10897 10894 10892
10911 10913 10915 10916 10917 10919 10921 10922 10923 10924 10926 10926 10927 10928 10928 10928 10928 10928 10928 10927 10926 10926 10926 10924 10923 10922 10920 10919 10918 10916 10914 10913 10911 10909 10906 10904 10901 10898 10895 10892 10889 10886 10883
10905 10908 10910 10912 10913 10914 10915 10917 10918 10919 10920 10921 10922 10922 10922 10922 10922 10922 10922 10921 10920 10920 10920 10919 10918 10916 10914 10912 10909 10908 10907 10904 10902 10901 10899 10896 10894 10890 10887 10883 10880 10877 10873
10900 10903 10905 10907 10909 10910 10911 10912 10913 10914 10915 10916 10917 10917 10917 10916 10916 10915 10915 10915 10914 10913 10912 10912 10911 10909 10907 10905 10902 10900 10898 10895 10893 10891 10889 10887 10884 10881 10877 10873 10870 10867 10863
10894 10898 10900 10902 10904 10905 10907 10907 10908 10909 10910 10911 10911 10911 10910 10910 10909 10909 10908 10907 10907 10905 10904 10903 10902 10901 10899 10897 10894 10892 10890 10887 10884 10882 10880 10878 10875 10871 10867 10864 10860 10856 10852
10889 10892 10894 10896 10899 10900 10901 10903 10903 10903 10904 10905 10905 10904 10904 10903 10903 10902 10901 10900 10899 10897 10896 10895 10894 10892 10891 10889 10886 10883 10881 10878 10876 10873 10870 10867 10864 10859 10856 10852 10849 10844 10840
10883 10886 10888 10890 10892 10893 10894 10896 10897 10897 10897 10898 10898 10897 10896 10896 10895 10894 10893 10891 10890 10889 10888 10886 10884 10883 10881 10879 10876 10874 10871 10869 10866 10863 10860 10856 10853 10848 10843 10839 10836 10831 10827
10876 10879 10882 10884 10885 10886 10887 10887 10888 10890 10889 10889 10890 10889 10888 10888 10887 10885 10884 10883 10881 10880 10879 10877 10875 10872 10870 10868 10866 10864 10861 10858 10855 10852 10849 10846 10841 10836 10832 10826 10822 10817 10813
10869 10872 10875 10876 10877 10878 10879 10880 10880 10881 10880 10880 10881 10880 10880 10879 10878 10876 10875 10874 10872 10870 10868 10866 10864 10862 10859 10857 10855 10853 10850 10847 10843 10839 10836 10832 10828 10823 10819 10813 10807 10801 10799
10859 10863 10866 10867 10868 10870 10871 10871 10872 10872 10871 10871 10870 10871 10870 10869 10868 10866 10865 10863 10861 10859 10857 10855 10853 10851 10849 10846 10844 10841 10838 10834 10830 10827 10822 10819 10814 10808 10803 10798 10793 10786 10783
10850 10854 10856 10857 10858 10860 10861 10861 10862 10863 10863 10862 10861 10860 10859 10858 10857 10856 10855 10853 10850 10848 10846 10845 10842 10840 10838 10835 10831 10829 10826 10822 10818 10814 10809 10804 10799 10794 10787 10782 10777 10771 10765
10841 10844 10845 10847 10848 10850 10851 10852 10852 10852 10853 10852 10850 10851 10848 10848 10847 10845 10844 10843 10840 10837 10835 10832 10830 10828 10825 10823 10819 10816 10813 10809 10804 10800 10794 10789 10782 10779 10772 10765 10760 10755 10750
10829 10832 10835 10836 10838 10839 10841 10841 10841 10841 10840 10840 10840 10840 10838 10837 10835 10834 10833 10831 10829 10826 10823 10820 10818 10815 10812 10809 10806 10803 10799 10795 10790 10785 10780 10774 10767 10761 10756 10752 10747 10742 10738
10818 10822 10825 10826 10828 10828 10829 10830 10830 10829 10830 10829 10829 10828 10827 10825 10822 10821 10820 10818 10817 10814 10809 10806 10805 10803 10800 10797 10793 10789 10785 10780 10776 10770 10765 10760 10754 10750 10744 10740 10736 10731 10728
10809 10812 10814 10816 10818 10819 10819 10818 10818 10818 10818 10818 10817 10817 10815 10812 10810 10808 10806 10804 10803 10800 10795 10792 10792 10791 10787 10784 10780 10777 10772 10767 10763 10758 10752 10747 10742 10739 10734 10730 10726 10721 10718
10798 10801 10804 10805 10807 10809 10808 10806 10806 10805 10805 10806 10805 10804 10801 10798 10794 10794 10792 10790 10788 10785 10781 10779 10779 10777 10773 10769 10766 10764 10760 10755 10750 10746 10740 10736 10732 10728 10725 10721 10717 10712 10708
10788 10791 10792 10795 10796 10796 10795 10794 10794 10793 10792 10791 10790 10788 10785 10782 10782 10780 10779 10776 10774 10771 10768 10766 10765 10763 10759 10756 10753 10750 10747 10743 10738 10733 10729 10725 10722 10718 10713 10710 10706 10703 10698
10779 10782 10783 10782 10782 10781 10781 10781 10781 10780 10780 10777 10774 10773 10771 10769 10768 10766 10765 10761 10758 10756 10755 10753 10751 10749 10746 10741 10739 10736 10734 10730 10726 10722 10718 10714 10711 10707 10703 10699 10695 10692 10688
10766 10768 10769 10769 10768 10767 10766 10768 10767 10766 10764 10761 10760 10759 10757 10756 10754 10752 10749 10747 10744 10742 10741 10739 10737 10735 10732 10728 10725 10722 10720 10716 10713 10709 10706 10702 10699 10695 10692 10688 10684 10680 10676
10749 10751 10753 10753 10753 10751 10752 10752 10751 10750 10748 10748 10747 10744 10742 10741 10739 10736 10733 10730 10731 10728 10725 10725 10723 10720 10718 10714 10711 10709 10707 10702 10699 10696 10692 10689 10687 10684 10680 10676 10672 10667 10664
10736 10737 10737 10739 10736 10736 10737 10736 10735 10734 10732 10734 10730 10727 10727 10723 10721 10721 10717 10714 10714 10712 10711 10710 10708 10705 10703 10700 10697 10694 10693 10688 10685 10682 10679 10675 10673 10670 10666 10662 10659 10654 10651
10725 10725 10723 10723 10720 10719 10719 10718 10719 10718 10717 10715 10714 10710 10707 10705 10703 10704 10702 10698 10695 10694 10695 10693 10691 10690 10687 10685 10682 10680 10678 10674 10670 10668 10664 10661 10658 10655 10651 10648 10644 10641 10638
10712 10713 10711 10709 10706 10704 10702 10702 10701 10699 10698 10697 10695 10691 10688 10688 10686 10686 10683 10680 10678 10676 10675 10675 10673 10673 10671 10669 10666 10666 10663 10660 10655 10652 10649 10646 10643 10639 10636 10633 10629 10626 10622
10698 10697 10694 10692 10690 10687 10686 10687 10685 10683 10680 10674 10672 10671 10667 10668 10667 10666 10664 10663 10660 10658 10656 10655 10654 10654 10654 10652 10651 10649 10648 10645 10641 10638 10634 10631 10628 10624 10620 10616 10613 10609 10606
10680 10680 10679 10677 10675 10673 10671 10671 10668 10667 10665 10659 10655 10651 10647 10644 10644 10646 10642 10642 10641 10640 10639 10637 10636 10633 10634 10636 10633 10633 10632 10630 10626 10624 10619 10614 10612 10609 10605 10601 10597 10594 10591
10663 10664 10663 10661 10660 10657 10654 10652 10651 10649 10645 10642 10637 10632 10626 10622 10618 10619 10621 10621 10622 10622 10621 10620 10620 10617 10615 10616 10615 10615 10614 10612 10610 10606 10602 10598 10595 10591 10588 10585 10581 10577 10575